Vertical_Velocity
-1 -3 -3 -2 -3 -2 -2 -1 -1 -1 -2 -2 -1 -1 -0 0 0 -3 -4 -2 -1 0 1 -1 -2 -2 -3 0 3 1 3 1 -2 3 1 -5 -7 3 7 2 4 -2 4 -0 5 3 -1
-2 -2 -1 -2 -2 -2 -2 -2 -2 -4 -3 -1 -2 -3 -2 -2 -2 -0 -2 -1 -1 -1 -1 -3 1 -1 1 1 -6 -7 -2 -0 2 3 1 -2 -6 -3 2 -2 10 4 1 -5 -2 3 0
-2 -0 -1 -1 -2 -2 -0 -0 -1 -1 -1 -3 -0 -1 -1 1 1 0 -2 -2 0 -1 -1 -1 -4 1 2 1 -6 -1 2 -1 -0 3 2 2 7 8 9 4 2 -2 -0 5 3 -2 -5
-1 -2 -0 -0 -2 -2 -3 -2 -1 -1 -1 -2 -4 -3 -2 -4 -2 -4 -2 -1 -2 2 1 -2 0 2 -1 -4 -3 -1 -1 -2 1 1 4 8 16 -4 8 6 11 7 6 5 1 2 -0
-2 -2 -0 -1 0 -1 -2 -3 -2 -2 -2 -1 0 -1 -3 -0 -1 -1 -2 -3 -4 -1 1 -0 -3 -2 -0 -3 -2 -3 1 3 -3 2 0 11 9 -1 5 2 4 2 -1 -4 -5 -6 -4
-3 -2 -1 -1 -5 -3 -2 -3 -5 -3 -3 -3 -1 -1 1 -0 -0 -3 -2 -0 -3 -2 -0 -1 -3 -2 -2 4 -2 -4 1 2 4 6 1 2 -0 5 6 -2 -10 -9 -2 2 -5 3 5
-3 -3 -2 -1 -2 -4 -2 -3 -4 -3 -1 -2 -6 -5 -4 -4 -1 1 -1 -0 -4 -4 -2 -2 -2 -2 2 -4 4 1 -2 -2 4 -0 -6 -8 -7 -12 -10 -8 -2 6 0 -2 -0 -1 1
-3 -2 -1 -1 -2 -2 -4 -4 -3 -3 -1 -2 -3 -4 -4 -2 -7 -2 -2 -2 -1 -3 -1 0 1 -3 -1 2 -1 4 -1 -5 -4 -5 5 8 -7 -6 -2 1 -2 1 6 3 3 -10 -0
-1 -3 -1 -1 1 -1 -1 -2 -3 -2 -2 -2 2 -2 -3 -1 -1 -1 2 1 -3 -5 -3 -1 3 0 1 2 -3 3 -1 8 1 3 -2 -6 -18 11 4 3 5 -0 1 1 6 -2 4
-1 -2 -0 -1 -2 -2 1 -1 -0 -2 -1 -3 0 2 -2 -4 1 -3 -0 -2 -2 -1 -1 -1 -3 0 -3 5 -4 1 5 8 1 -6 2 4 8 -1 -0 -4 9 3 1 11 6 7 -10
-1 -2 -2 0 -3 -3 -5 -0 -3 -2 -4 0 -0 -1 -2 -1 -2 1 -0 -0 -3 -5 -3 -3 -1 0 -0 3 -1 0 4 12 -2 0 6 -13 -3 1 4 -18 6 -11 7 8 9 4 5
-1 0 -1 -2 -1 -2 -3 -4 -2 -2 0 -1 -2 -2 3 -2 -3 -3 -3 -3 -1 -2 -8 -3 -2 -3 -2 2 -3 -2 4 3 1 2 5 -5 -1 11 -1 -3 1 12 9 11 11 7 5
-1 -0 -2 -1 -1 -2 -2 -2 -3 -2 -2 1 -3 -4 -1 -1 1 1 1 1 2 -2 3 1 -4 -5 -2 -1 3 -5 1 0 -6 2 -2 3 -6 -4 4 10 11 16 13 2 5 7 -6
0 1 -1 0 -0 -3 -1 0 -2 -3 -1 -2 2 1 2 1 0 2 -0 -0 1 7 2 0 -0 0 -3 1 -6 -1 0 -0 4 4 3 4 -2 2 -4 -10 -14 -13 3 -9 -5 -2 -5
1 -1 -1 -1 -1 -1 -1 1 -0 -3 -3 -1 -4 -1 1 1 1 0 1 0 -1 -1 2 1 -0 -1 -1 -0 18 2 6 -5 -2 9 1 3 -13 -7 -2 7 4 -10 1 -13 7 4 3
-2 1 -0 -3 -2 -5 -2 -3 0 -0 -1 -2 -1 -5 3 3 1 2 0 -4 4 3 -0 2 -3 2 0 1 1 0 1 2 -1 1 10 -3 2 -3 -5 28 15 -11 9 19 11 2 1
-2 0 1 2 -4 1 -2 -2 -1 1 -5 1 -1 -4 -0 -1 0 1 -0 -2 2 -3 1 2 1 -4 -2 3 0 -2 -4 1 -2 -1 -3 17 21 -8 13 -17 -14 2 6 16 9 -2 -4
-3 -2 -0 -2 1 -1 3 -7 -1 -2 1 -1 2 -3 -0 2 1 0 -1 0 -3 -1 -3 -1 -0 1 -2 6 -2 7 -5 9 -3 -1 -4 -3 -2 -5 -8 3 20 10 8 12 1 -8 -9
-5 2 -1 -2 -2 2 -2 -1 0 2 -3 1 1 0 2 -1 -2 2 3 3 1 -2 2 -2 -2 4 4 1 1 1 3 -1 1 -0 7 5 11 -1 -2 -4 15 13 15 2 11 18 -10
-3 1 1 1 -1 2 -4 -1 1 3 -2 1 -2 -1 -1 1 1 -0 1 2 4 -1 -4 1 -1 4 6 -2 8 -2 -3 1 -5 -1 1 2 -1 -1 -4 -4 2 -8 -17 -4 19 16 -7
-1 -1 1 1 -1 -2 -6 4 3 -2 4 0 4 2 6 -1 2 1 2 0 1 6 -1 -0 -7 5 -1 -2 0 -7 4 2 -2 -3 -1 4 -4 3 -1 1 3 4 3 1 -4 -7 18
-3 -4 -2 -1 -4 -8 -3 -6 -14 -4 -6 2 7 6 -1 5 4 3 7 -3 1 1 4 3 2 -5 3 4 4 -5 -2 6 5 -6 -1 -2 -14 2 -10 -3 2 -5 -1 1 2 -2 -6
-1 0 -0 -3 -4 -5 -4 -3 -1 -4 -9 1 1 3 -1 5 -2 -2 0 1 -1 1 4 -2 2 1 5 -2 1 6 0 -5 4 -0 3 2 -2 3 -15 0 4 1 -17 -3 -5 0 7
5 3 -0 -1 -3 -2 -5 -5 -4 -3 3 1 2 -11 -5 -9 0 2 -5 -3 -2 2 -2 3 2 0 -7 -2 -1 -2 -1 0 6 -11 7 -4 7 19 -14 8 -0 -22 4 2 0 -8 -4
-3 -1 3 -0 1 -3 -6 -3 5 5 3 5 -3 -1 -2 -4 -3 1 6 3 4 1 0 0 -0 -1 2 -2 -4 -8 -12 -3 -16 -5 3 7 23 0 1 2 -11 -9 1 2 2 2 -2
-2 1 0 -1 -2 -1 3 -4 2 -0 -3 -2 2 -2 -1 2 -9 -3 -3 -2 -2 1 2 4 -0 1 -2 -1 1 0 -5 -2 2 1 -0 10 16 5 4 2 -4 -7 1 5 3 -11 -2
2 -3 -7 -1 -1 2 -0 -1 1 0 -1 -1 -1 -3 1 0 -0 5 4 2 3 1 -2 -2 4 4 -1 -0 1 -1 -8 1 -6 -3 3 4 14 -2 -1 1 -6 -3 2 3 5 -13 2
-1 1 1 -2 -4 1 -1 -1 6 4 1 -2 2 -1 2 -2 4 1 2 2 2 3 1 3 2 -3 2 1 3 -2 2 5 2 -0 -0 4 3 -2 7 8 -5 1 4 3 -1 4 1
2 -6 -6 -4 3 1 -1 -4 -2 1 3 4 1 -2 3 0 4 -2 4 -0 2 6 1 -3 3 -1 1 1 3 2 -2 -5 4 -7 -3 10 2 1 6 12 5 0 -2 3 3 1 -0
Height
3112 3109 3106 3102 3098 3094 3091 3087 3084 3081 3079 3077 3074 3071 3068 3066 3063 3058 3055 3053 3052 3051 3051 3050 3050 3049 3049 3051 3051 3051 3052 3055 3060 3064 3069 3073 3076 3081 3084 3087 3090 3090 3092 3097 3100 3100 3103
3113 3109 3107 3104 3100 3095 3091 3088 3084 3081 3078 3076 3074 3071 3067 3065 3063 3060 3056 3053 3052 3051 3051 3051 3050 3050 3050 3051 3049 3049 3053 3055 3058 3063 3068 3071 3075 3081 3085 3085 3087 3087 3092 3096 3096 3097 3099
3114 3110 3107 3104 3100 3096 3093 3089 3085 3081 3078 3076 3073 3070 3067 3064 3062 3060 3057 3053 3052 3051 3050 3050 3050 3050 3050 3050 3049 3051 3053 3055 3057 3063 3067 3071 3076 3080 3085 3086 3086 3089 3091 3090 3090 3093 3096
3114 3111 3107 3103 3100 3097 3092 3089 3085 3081 3078 3076 3072 3069 3067 3063 3060 3059 3057 3054 3051 3050 3050 3049 3049 3048 3048 3048 3048 3051 3053 3055 3057 3060 3067 3072 3075 3077 3080 3081 3083 3084 3085 3085 3089 3090 3094
3113 3111 3107 3104 3100 3097 3093 3090 3086 3082 3078 3075 3072 3068 3066 3063 3060 3057 3055 3053 3051 3049 3049 3048 3048 3048 3047 3046 3048 3050 3052 3054 3056 3059 3063 3069 3070 3073 3076 3076 3079 3078 3080 3082 3086 3088 3090
3112 3109 3107 3104 3101 3096 3093 3090 3087 3083 3078 3075 3071 3068 3065 3062 3059 3056 3054 3052 3050 3048 3047 3046 3046 3049 3047 3046 3046 3049 3051 3053 3055 3057 3060 3063 3065 3066 3068 3070 3070 3075 3079 3081 3082 3083 3081
3112 3109 3107 3104 3102 3099 3094 3091 3087 3084 3079 3075 3071 3067 3064 3061 3059 3056 3053 3052 3051 3048 3045 3044 3044 3044 3045 3045 3044 3047 3049 3052 3053 3055 3056 3059 3061 3059 3065 3069 3072 3075 3075 3075 3074 3074 3077
3111 3109 3106 3102 3100 3097 3094 3090 3086 3082 3079 3075 3071 3067 3063 3060 3057 3054 3052 3050 3047 3047 3045 3042 3041 3042 3043 3043 3044 3045 3046 3048 3050 3052 3054 3057 3054 3061 3065 3068 3070 3073 3073 3074 3074 3076 3079
3111 3108 3104 3101 3098 3095 3091 3088 3085 3081 3077 3073 3070 3067 3063 3059 3056 3053 3051 3049 3046 3045 3043 3042 3040 3040 3041 3043 3042 3043 3045 3045 3046 3049 3051 3050 3052 3058 3060 3063 3065 3067 3068 3071 3074 3077 3076
3109 3105 3102 3099 3096 3092 3089 3085 3081 3079 3075 3072 3068 3065 3062 3059 3057 3052 3049 3046 3045 3043 3041 3040 3039 3039 3039 3040 3041 3041 3042 3045 3044 3044 3048 3048 3050 3052 3055 3056 3062 3061 3066 3069 3070 3071 3069
3106 3102 3099 3095 3092 3088 3085 3083 3079 3075 3072 3069 3066 3062 3060 3056 3054 3051 3049 3045 3043 3043 3045 3042 3041 3039 3038 3040 3039 3039 3040 3040 3040 3042 3043 3041 3044 3046 3046 3049 3056 3056 3063 3064 3063 3063 3062
3101 3098 3095 3092 3088 3085 3082 3078 3075 3072 3068 3065 3062 3059 3056 3054 3051 3048 3045 3043 3043 3044 3040 3039 3039 3038 3038 3037 3036 3037 3038 3038 3038 3038 3038 3037 3041 3043 3043 3046 3050 3055 3057 3057 3056 3057 3055
3098 3094 3091 3088 3085 3082 3078 3075 3072 3068 3065 3061 3058 3055 3052 3050 3048 3045 3043 3043 3043 3038 3038 3035 3035 3035 3035 3035 3033 3032 3034 3033 3034 3034 3032 3033 3030 3034 3038 3039 3043 3046 3049 3050 3051 3050 3041
3093 3090 3087 3084 3081 3077 3074 3071 3067 3064 3060 3057 3054 3051 3048 3046 3044 3042 3040 3041 3039 3034 3032 3032 3031 3031 3031 3031 3030 3030 3029 3029 3029 3029 3027 3025 3024 3023 3026 3028 3032 3034 3038 3039 3038 3036 3037
3090 3086 3082 3079 3076 3073 3069 3066 3063 3059 3056 3053 3049 3047 3045 3041 3039 3038 3039 3037 3034 3032 3031 3028 3029 3028 3026 3026 3027 3025 3024 3024 3023 3024 3024 3019 3013 3015 3017 3020 3026 3027 3026 3032 3033 3030 3032
3084 3082 3078 3075 3072 3068 3066 3062 3058 3054 3051 3048 3045 3042 3041 3038 3036 3034 3034 3032 3032 3028 3027 3027 3025 3025 3024 3023 3024 3021 3020 3018 3017 3017 3016 3011 3008 3007 3009 3013 3016 3016 3023 3027 3026 3023 3023
3079 3076 3073 3069 3066 3063 3060 3057 3053 3050 3046 3043 3039 3036 3035 3033 3032 3030 3028 3028 3027 3025 3025 3025 3023 3020 3019 3018 3018 3017 3015 3015 3013 3013 3011 3005 3003 3000 3003 3000 2999 3006 3010 3012 3014 3012 3008
3072 3070 3067 3064 3060 3057 3053 3050 3047 3044 3041 3038 3035 3033 3031 3029 3029 3024 3022 3022 3023 3022 3021 3020 3018 3015 3014 3013 3011 3011 3009 3009 3008 3007 3007 3006 3000 2997 2995 2994 2995 2997 2996 2998 2998 2996 2997
3065 3064 3061 3058 3055 3051 3048 3044 3042 3038 3036 3033 3030 3028 3025 3024 3022 3021 3019 3016 3014 3014 3015 3013 3013 3013 3010 3009 3008 3004 3004 3004 3002 3002 3000 2999 2997 2994 2988 2990 2987 2988 2989 2991 2992 2992 2988
3059 3058 3056 3053 3049 3046 3044 3040 3038 3035 3032 3029 3027 3024 3021 3018 3017 3016 3015 3013 3011 3009 3008 3008 3008 3008 3007 3004 3004 2999 2999 2998 2997 2997 2995 2994 2992 2993 2991 2987 2984 2981 2982 2984 2984 2979 2975
3054 3052 3049 3046 3044 3040 3038 3034 3031 3030 3028 3026 3022 3019 3016 3015 3013 3012 3010 3010 3008 3007 3006 3004 3002 3003 3002 2999 2996 2996 2996 2994 2992 2990 2990 2989 2986 2985 2983 2980 2980 2978 2976 2975 2975 2976 2973
3048 3047 3044 3042 3039 3036 3033 3029 3027 3025 3022 3022 3019 3016 3015 3013 3011 3009 3007 3005 3003 3002 3001 3000 2998 2997 2997 2995 2992 2988 2989 2989 2987 2986 2984 2982 2979 2978 2974 2974 2973 2969 2968 2968 2968 2968 2966
3041 3040 3037 3035 3032 3029 3027 3024 3022 3017 3016 3014 3013 3010 3010 3010 3007 3006 3003 3001 2999 2997 2997 2993 2991 2989 2988 2987 2985 2982 2979 2980 2980 2979 2978 2977 2975 2973 2967 2969 2967 2961 2959 2959 2960 2960 2959
3035 3034 3031 3028 3025 3024 3020 3017 3013 3010 3011 3009 3005 3004 3004 3002 3001 2999 2996 2995 2993 2991 2987 2986 2983 2980 2979 2976 2974 2972 2971 2969 2969 2968 2969 2966 2968 2969 2964 2966 2964 2954 2953 2953 2950 2953 2953
3031 3029 3026 3022 3019 3017 3013 3011 3008 3006 3004 3001 3000 2998 2996 2993 2993 2993 2989 2987 2985 2983 2980 2976 2975 2972 2969 2968 2965 2962 2960 2957 2955 2955 2956 2956 2957 2959 2958 2955 2951 2948 2947 2948 2947 2945 2945
3026 3023 3020 3017 3014 3010 3006 3005 3004 2999 2997 2996 2993 2991 2990 2987 2985 2984 2981 2979 2976 2973 2972 2969 2967 2965 2963 2961 2960 2957 2954 2951 2949 2946 2946 2946 2947 2951 2951 2950 2947 2940 2940 2940 2940 2938 2939
3019 3017 3016 3013 3008 3005 3002 3000 2997 2994 2992 2988 2987 2985 2983 2981 2980 2978 2974 2971 2969 2966 2964 2963 2960 2960 2957 2955 2954 2952 2949 2947 2943 2941 2942 2942 2941 2939 2940 2941 2937 2936 2936 2936 2937 2934 2928
3015 3012 3009 3006 3003 3000 2997 2995 2992 2987 2985 2983 2981 2978 2977 2975 2974 2971 2968 2966 2963 2960 2957 2957 2956 2953 2952 2951 2950 2948 2944 2942 2938 2936 2935 2937 2938 2935 2935 2934 2933 2932 2930 2933 2930 2926 2927
3011 3007 3004 3002 2999 2994 2991 2989 2986 2982 2979 2977 2975 2974 2973 2970 2969 2965 2962 2959 2957 2956 2953 2951 2952 2949 2948 2947 2946 2943 2941 2938 2936 2935 2932 2931 2932 2932 2932 2925 2925 2926 2927 2926 2924 2924 2924